Regional Weather Roundup
Issued by NWS

Home | Current Version | Previous Version | Text Only | Print | Product List | Glossary On
Versions: 1 2 3 4 5 6 7 8 9 10 11 12 13 14 15 16 17 18 19 20 21 22 23 24 25 26 27 28 29 30 31 32 33 34 35 36 37 38 39 40 41 42 43 44 45 46 47 48 49 50
000
ASUS45 KPSR 311310
RWRAZ

ARIZONA REGIONAL HOURLY WEATHER ROUNDUP
NATIONAL WEATHER SERVICE PHOENIX AZ
600 AM MST THU JUL 31 2014

NOTE: FAIR INDICATES FEW OR NO CLOUDS BELOW 12,000 FEET WITH NO
SIGNIFICANT WEATHER AND/OR OBSTRUCTIONS TO VISIBILITY.

AZZ001>003-036-311400-
NORTHWEST ARIZONA

CITY           SKY/WX    TMP DP  RH WIND       PRES   REMARKS
BULLHEAD CITY  MOCLDY    95  50  21 N10       29.83R
KINGMAN        MOCLDY    76  49  38 E8        30.05R
$$

AZZ004>008-015-016-018-311400-
NORTH CENTRAL ARIZONA

CITY           SKY/WX    TMP DP  RH WIND       PRES   REMARKS
GRAND CANYON   CLEAR     52  47  83 NE3       30.31R
WILLIAMS       CLEAR     55  48  76 S3        30.37
PRESCOTT       MOCLDY    69  50  50 S3        30.18R
FLAGSTAFF      CLEAR     54  46  74 CALM      30.33S
PAYSON         PTCLDY    68  50  52 CALM      30.21R
PAGE           CLEAR     76  48  37 W3        30.12R
$$

AZZ009>014-017-311400-
NORTHEAST ARIZONA

CITY           SKY/WX    TMP DP  RH WIND       PRES   REMARKS
WINSLOW        CLEAR     71  48  43 W8        30.16R
SAINT JOHNS    PTCLDY    67  50  54 S6        30.22R
WINDOW ROCK    PTCLDY    56  52  86 S6        30.32R
SHOW LOW       PTCLDY    66  46  48 S7        30.30S
$$

AZZ023-311400-
GREATER PHOENIX AREA

CITY           SKY/WX    TMP DP  RH WIND       PRES   REMARKS
PHOENIX        PTCLDY    90  57  32 E6        29.86R
BUCKEYE          N/A     84  54  34 N6        29.87
GLENDALE       PTCLDY    91  55  29 S6        29.87
LUKE AFB       NOT AVBL
DEER VALLEY    CLEAR     88  56  33 E5        29.89R
SCOTTSDALE     CLEAR     88  56  33 CALM      29.91R
MESA-FALCON    MOCLDY    90  54  29 E9        29.89
MESA-GATEWAY   MOCLDY    86  57  37 SE7       29.90R
CHANDLER       MOCLDY    84  59  42 NE7       29.88
$$

AZZ027-028-311400-
SOUTHWEST MARICOPA COUNTY AND PINAL COUNTY

CITY           SKY/WX    TMP DP  RH WIND       PRES   REMARKS
CASA GRANDE    PTCLDY    82  55  39 CALM      29.92R
$$

AZZ503-504-507>509-311400-
SOUTHEAST ARIZONA

CITY           SKY/WX    TMP DP  RH WIND       PRES   REMARKS
TUCSON         CLOUDY    83  59  44 E6        30.04S
DAVIS-MONTHAN  CLOUDY    81  60  48 SE8       30.03S
RYAN FIELD       N/A     82  64  54 NW7       30.02
NOGALES        CLOUDY    71  61  70 S6        30.16R
SIERRA VISTA   CLOUDY    72  57  60 S5        30.21R
SAFFORD        CLOUDY    79  56  45 S8        30.09R
$$

AZZ020-021-025-026-031-311400-
SOUTHWEST ARIZONA

CITY           SKY/WX    TMP DP  RH WIND       PRES   REMARKS
YUMA           PTCLDY    87  63  44 S6        29.80R
$$

CAZ031-033-041-043-047-048-061-311400-
SOUTHERN CALIFORNIA

CITY           SKY/WX    TMP DP  RH WIND       PRES   REMARKS
DOWNTOWN L.A.  CLEAR     68  63  84 CALM      29.91S
L.A. AIRPORT   PTCLDY    67  63  87 CALM      29.92R
SAN DIEGO      MOCLDY    71  65  81 CALM      29.94R
BURBANK        CLEAR     70  60  70 CALM      29.93R
ONTARIO        PTCLDY    72  58  61 CALM      29.93S
RIVERSIDE      CLEAR     71  60  68 CALM      29.94R
PALM SPRINGS   CLEAR     93  53  25 W7        29.82S
EL CENTRO NAS  PTCLDY    83  57  41 SE10      29.77R
IMPERIAL         N/A     87  53  31 SE8       29.77R
BLYTHE           N/A    N/A N/A N/A MISG      29.79R
NEEDLES        PTCLDY    92  52  25 NW6       29.83R
$$

NVZ020-UTZ003-311400-
SOUTHERN NEVADA-UTAH

CITY           SKY/WX    TMP DP  RH WIND       PRES   REMARKS
LAS VEGAS      MOCLDY    84  52  33 S9        29.93R
SALT LAKE CITY PTCLDY    63  56  78 SW3       30.17S
$$

NMZ009-TXZ055-311400-
NEW MEXICO-WEST TEXAS

CITY           SKY/WX    TMP DP  RH WIND       PRES   REMARKS
ALBUQUERQUE    PTCLDY    64  56  75 E7        30.29R
EL PASO        CLOUDY    72  62  71 N13       30.17S
$$


........................KEY........................
SKY/WX - SKY CONDITION/WEATHER
TMP    - TEMPERATURE IN FAHRENHEIT
DP     - DEW POINT IN FAHRENHEIT
RH     - RELATIVE HUMIDITY IN PERCENT
WIND   - DIRECTION AND SPEED IN MILES PER HOUR (MPH)
VRB    - VARIABLE WIND DIRECTION
PRES   - MEAN SEA LEVEL PRESSURE IN INCHES OF MERCURY
         F - FALLING PRESSURE   R - RISING PRESSURE
         S - STEADY PRESSURE
VSB    - VISIBILITY IN MILES
HX     - HEAT INDEX IN FAHRENHEIT
WCI    - WIND CHILL INDEX IN FAHRENHEIT
TC     - TEMPERATURE IN CELSIUS WHICH IS ALSO KNOWN AS
         TEMPERATURE IN CENTIGRADE
AFB    - AIR FORCE BASE
         LUKE AFB IS LUKE AIR FORCE BASE
         DAVIS-MONTHAN IS DAVIS-MONTHAN AIR FORCE BASE
NAS    - NAVAL AIR STATION
         EL CENTRO NAS IS EL CENTRO NAVAL AIR STATION
N/A    - NOT AVAILABLE


USA.gov is the U.S. government's official web portal to all federal, state and local government web resources and services.